Regional Weather Roundup
Issued by NWS San Angelo, TX

Home | Current Version | Previous Version | Text Only | Print | Product List | Glossary On
Versions: 1 2 3 4 5 6 7 8 9 10 11 12 13 14 15 16 17 18 19 20 21 22 23 24 25 26 27 28 29 30 31 32 33 34 35 36 37 38 39 40 41 42 43 44 45 46 47 48 49 50
000
ASUS44 KSJT 301111
RWRSJT
WEST CENTRAL TEXAS REGIONAL WEATHER ROUNDUP
NATIONAL WEATHER SERVICE SAN ANGELO TX
600 AM CDT SAT APR 30 2016

NOTE: "FAIR" INDICATES FEW OR NO CLOUDS BELOW 12,000 FEET WITH NO
SIGNIFICANT WEATHER AND/OR OBSTRUCTIONS TO VISIBILITY.

TXZ049-054-064>066-071>073-076>078-098-099-113-114-127-128-139-140-
154-155-168>170-301200
...LOCATIONS ACROSS WEST CENTRAL TEXAS...

CITY           SKY/WX    TMP DP  RH WIND       PRES   REMARKS
SAN ANGELO     PTCLDY    55  49  80 NE8       29.75F
ABILENE        CLEAR     51  47  86 N8        29.80R
DYESS AFB      CLEAR     50  47  89 NW5       29.79R
JUNCTION       PTCLDY    55  49  80 CALM      29.76R
SWEETWATER     PTCLDY    49  48  97 N5        29.82R
BROWNWOOD      MOCLDY    55  52  88 N3        29.77
COLEMAN        CLOUDY    55  50  82 NW7       29.80R
SONORA         PTCLDY    57  41  54 CALM      29.81F
OZONA          FAIR      54  43  66 NE3       29.81R
BRADY          NOT AVBL
$$

TEXAS PANHANDLE/OKLAHOMA PANHANDLE

CITY           SKY/WX    TMP DP  RH WIND       PRES   REMARKS
AMARILLO       CLEAR     37  34  89 NW9       29.83R WCI  30
BORGER         CLEAR     38  35  89 W5        29.83S WCI  34
CANADIAN       CLEAR     40  38  93 W6        29.81F WCI  36
DALHART        CLOUDY    39  35  86 N6        29.83R WCI  35
DUMAS          SUNNY     33  32  96 NW6       29.82R WCI  28
GUYMON         NOT AVBL
HEREFORD       SUNNY     37  36  96 CALM      29.85R
PAMPA          SUNNY     38  37  95 NW8       29.82S WCI  32
PERRYTON       CLEAR     38  36  92 NW6       29.81R WCI  34
$$

SOUTHERN PANHANDLE/SOUTH PLAINS/ROLLING PLAINS

CITY           SKY/WX    TMP DP  RH WIND       PRES   REMARKS
LUBBOCK        CLOUDY    46  42  86 N6        29.84R
SNYDER           N/A     48  46  93 N7        29.81R
CHILDRESS      PTCLDY    47  41  80 N13       29.81S
SEMINOLE       MOSUNNY   49  43  80 CALM      29.84S
$$

PERMIAN BASIN

CITY           SKY/WX    TMP DP  RH WIND       PRES   REMARKS
MIDLAND        PTCLDY    50  25  37 SW6       29.79R
ODESSA         CLEAR     55  26  32 W3        29.80S
WINK           NOT AVBL
$$

FAR WEST/SOUTHWEST MOUNTAINS/TRANS PECOS

CITY           SKY/WX    TMP DP  RH WIND       PRES   REMARKS
ALPINE         SUNNY     46  14  27 SW3       29.94S
DRYDEN           N/A     60  20  21 NW9       29.78R
EL PASO        PTCLDY    57  29  34 CALM      29.86S
FORT STOCKTON  CLEAR     56  19  23 SW12      29.81F
GUADALUPE PASS CLEAR     48  24  39 SW15      29.88R
MARFA          CLEAR     36  13  38 E5        29.92S WCI  32
PECOS          SUNNY     56  23  27 SW10      29.80S
$$

DALLAS/FORT WORTH METROPLEX

CITY           SKY/WX    TMP DP  RH WIND       PRES   REMARKS
DFW AIRPORT    CLOUDY    64  58  80 NW9       29.70R
FTW MEACHAM    CLOUDY    62  57  83 NW8       29.71R
DAL-EXECUTIVE  CLOUDY    64  60  87 N9        29.69R
GRAND PRAIRIE  CLOUDY    64  57  80 NW6       29.72S
ADDISON        CLOUDY    64  63  94 N12       29.71F
MESQUITE       CLOUDY    62  61  98 N7        29.69S
LANCASTER      CLOUDY    63  59  88 N9        29.69F
$$

NORTH CENTRAL TEXAS

CITY           SKY/WX    TMP DP  RH WIND       PRES   REMARKS
SHRMAN/DENISON CLOUDY    57  55  92 NW9       29.73R FOG
GAINESVILLE    CLOUDY    57  56  95 N7        29.76R
BRIDGEPORT     CLOUDY    58  56  94 NW7       29.76R
DENTON         CLOUDY    59  56  89 NW9       29.72R
WAXAHACHIE     CLOUDY    63  63 100 NW10      29.71S
GRANBURY       CLOUDY    61  57  88 N9        29.73S
$$

WESTERN NORTH TEXAS

CITY           SKY/WX    TMP DP  RH WIND       PRES   REMARKS
WICHITA FALLS  CLOUDY    53  47  79 N9        29.78R
VERNON         PTSUNNY   49  42  77 N8        29.81S
BRECKENRIDGE   CLOUDY    54  49  84 N9G16     29.78R
COMANCHE       PTCLDY    56  56 100 N10       29.76R
$$

CENTRAL AND SOUTH CENTRAL TEXAS

CITY           SKY/WX    TMP DP  RH WIND       PRES   REMARKS
AUSTIN/BERGSTM CLOUDY    69  67  93 NE14      29.64F
WACO           CLOUDY    64  59  83 N5        29.68S
HILLSBORO      CLOUDY    62  61  97 NW13      29.70R
TEMPLE         LGT RAIN  65  63  93 N6        29.70S
KILLEEN-GRAY   CLOUDY    64  60  88 N12       29.67F
FORT HOOD      MOCLDY    64  62  90 N12       29.67S
GEORGETOWN     CLOUDY   N/A N/A N/A MISG        N/A
LAGO VISTA     FAIR      65  62  91 NE8       29.68F
SAN MARCOS     PTCLDY    63  59  88 N5        29.66S
NEW BRAUNFELS  CLOUDY    65  60  84 SE3       29.65R
RANDOLPH AFB   CLOUDY    60  58  94 E5        29.65R
SAN ANTONIO    CLOUDY    60  56  86 CALM      29.65F
STINSON        CLOUDY    62  56  80 S3        29.64R
PLEASANTON     NOT AVBL
LA GRANGE      TSTM      69  66  91 W18G32    29.70R
GIDDINGS       HVY RAIN  67  65  96 NW18G36   29.70R
$$

EAST TEXAS

CITY           SKY/WX    TMP DP  RH WIND       PRES   REMARKS
PARIS          CLOUDY    66  59  77 SE8       29.68S
CLARKSVILLE    NOT AVBL
TYLER          CLOUDY    68  66  93 SE10      29.68R
LONGVIEW       CLOUDY    65  64  97 E5        29.69S
PALESTINE        N/A     67  67 100 NE3       29.67
NACOGDOCHES    CLOUDY    57 N/A N/A E5        29.67R
$$

TEXAS HILL COUNTRY AND EDWARDS PLATEAU

CITY           SKY/WX    TMP DP  RH WIND       PRES   REMARKS
LLANO          CLOUDY    63  59  88 CALM      29.74S
HORSESHOE BAY  FAIR      67  65  94 NW3       29.69R
KERRVILLE      MOCLDY    56  55  94 N5        29.71F
FREDERICKSBRG  PTCLDY    60  49  67 NW3       29.71S
ROCKSPRINGS    MOSUNNY   63  36  36 CALM      29.77F
HONDO          CLEAR     57  55  93 NE3       29.69R
UVALDE         SUNNY     58  56  92 CALM      29.70F
DEL RIO        PTCLDY    60  58  92 CALM      29.71R
$$

SOUTHEAST TEXAS

CITY           SKY/WX    TMP DP  RH WIND       PRES   REMARKS
COLLEGE STN    CLOUDY    70  68  93 NE6       29.63R
CALDWELL       TSTM      70  70 100 N6        29.64F
CROCKETT       CLOUDY    68  68 100 E5        29.68S
BRENHAM        CLOUDY    77  75  93 N5        29.64R FOG
HUNTSVILLE     CLOUDY    69  67  93 NW5       29.64R
CONROE         RAIN      68  67  96 E8        29.67R FOG
HOUSTON BUSH   CLOUDY    74  74 100 S7        29.63R
HOUSTON HOBBY  CLOUDY    76  74  93 S8        29.63R
PERLAND        LGT RAIN  78  75  90 S7        29.65R
WHARTON        MOSUNNY   76  73  92 S6        29.64S FOG
$$

THE UPPER TEXAS COAST

CITY           SKY/WX    TMP DP  RH WIND       PRES   REMARKS
ORANGE         CLOUDY    76  70  83 S13       29.67S
PORT ARTHUR    CLOUDY    76  72  87 S16G23    29.63F
GALVESTON      CLOUDY    76  75  97 S16       29.64R
ANGLETON       CLOUDY    78  74  87 S13G24    29.62R
BAY CITY       CLOUDY    77  76  95 S8        29.63R FOG
$$

TEXAS COASTAL BEND, RIO GRANDE PLAINS DEEP SOUTH TEXAS

CITY           SKY/WX    TMP DP  RH WIND       PRES   REMARKS
VICTORIA       CLOUDY    77  75  93 SW3       29.64R FOG
BEEVILLE       CLOUDY    77  77 100 CALM      29.63R FOG
ROCKPORT       CLOUDY    79  74  84 S9        29.60R
PORT ARANSAS   CLOUDY    77  77  99 S10       29.59S
PORT LAVACA    CLOUDY    77  75  95 S7        29.62R FOG
CORPUS CHRISTI CLOUDY    79  75  87 S10       29.59R
KINGSVILLE NAS CLOUDY    78  78 100 SE5       29.58R FOG
COTULLA        CLOUDY    69  60  73 NE10      29.67R
LAREDO         CLOUDY    78  75  90 NW8       29.64R
BROWNSVILLE    CLOUDY    77  76  96 S14       29.57F FOG
PORT ISABEL    CLOUDY    78  76  93 S14       29.56S FOG
HEBBRONVILLE   CLOUDY    77  73  87 CALM      29.62R FOG
MCALLEN        CLOUDY    80  75  84 SE9       29.57S HAZE
WESLACO        CLOUDY    77  74  91 S6        29.56S FOG
FALFURRIAS     CLOUDY    79  74  85 S6        29.57S
EDINBURG       CLOUDY    80  75  84 S7        29.57S HAZE
$$




USA.gov is the U.S. government's official web portal to all federal, state and local government web resources and services.